Flag for U.S.A. Weather past 2 weeks in Fort Bragg, California, U.S.A.

Now
68 °F

Sunny.


Feels Like: 68 °F
Forecast: 49 / 58 °F
Wind: 9 mph from North

Location: Ukiah Municipal


UV Index: 0 (Low)

Visibility: 10 mi


Pressure: 29.85 "Hg

Humidity: 45%

Dew point: 46 °F

Location of Fort BraggLocation

Historic Weather in Fort Bragg

°F

Fort Bragg temperature yesterday

Maximum temperature yesterday: 78 °F (at 2:56 PM)
Minimum temperature yesterday: 46 °F (at 6:56 AM)
Average temperature yesterday: 63 °F

Past Weeks' High & Low Weather Summary

 TemperatureHumidityPressure
High86 °F (Apr 10, 3:56 PM)93% (Apr 3, 4:56 AM)30.27 "Hg (Apr 3, 4:56 AM)
Low40 °F (Apr 3, 5:56 AM)15% (Apr 13, 2:56 PM)29.78 "Hg (Apr 11, 5:56 PM)
Average60 °F61%30.00 "Hg
* Reported Apr 2 10:56 AM — Apr 17 10:56 AM, Fort Bragg, Weather by CustomWeather, © 2014

Note: Actual official high and low records may vary slightly from our data, if they occured in-between our weather recording intervals... More about our weather records

Advertising

Historic Weather Conditions — Data for Previous 24 hours

 ConditionsComfort  
Time TempWeatherWind HumidityBarometerVisibility
10:56 AM
Apr 17
68 °FSunny.9 mph45%29.85 "Hg10 mi
9:56 AM63 °FSunny.3 mph54%29.86 "Hg10 mi
8:56 AM60 °FSunny.7 mph60%29.87 "Hg10 mi
7:56 AM52 °FSunny.3 mph77%29.86 "Hg10 mi
6:56 AM47 °FClear.3 mph90%29.83 "Hg10 mi
5:56 AM49 °FClear.3 mph84%29.82 "Hg10 mi
4:56 AM49 °FClear.No wind86%29.82 "Hg10 mi
3:56 AM50 °FClear.No wind83%29.83 "Hg10 mi
2:56 AM53 °FClear.No wind74%29.83 "Hg10 mi
1:56 AM53 °FClear.No wind77%29.84 "Hg10 mi
12:56 AM55 °FClear.No wind72%29.85 "Hg10 mi
11:56 PM
Apr 16
57 °FClear.No wind67%29.85 "Hg10 mi
10:56 PM57 °FClear.3 mph67%29.85 "Hg10 mi
9:56 PM60 °FClear.No wind58%29.85 "Hg10 mi
8:56 PM65 °FClear.3 mph47%29.84 "Hg10 mi
7:56 PM68 °FSunny.9 mph42%29.83 "Hg10 mi
6:56 PM74 °FSunny.6 mph36%29.82 "Hg10 mi
5:56 PM77 °FSunny.8 mph32%29.82 "Hg10 mi
4:56 PM78 °FSunny.8 mph29%29.83 "Hg10 mi
3:56 PM78 °FSunny.10 mph32%29.84 "Hg10 mi
2:56 PM78 °FSunny.12 mph30%29.85 "Hg10 mi
1:56 PM76 °FSunny.12 mph32%29.87 "Hg10 mi
12:56 PM74 °FSunny.8 mph33%29.89 "Hg10 mi
11:56 AM71 °FSunny.9 mph35%29.92 "Hg10 mi
Weather by CustomWeather, © 2014

See weather overview